Location: Newark
(50.1751°N, 5.6239°W)
Time: 00:46:36
(UTC+00:00)

Nauka - Pass Details

Date: 26 September 2021
Orbit: 417 x 423 km, 51.6° (Epoch: 26 October)

Event Time Altitude Azimuth Distance (km) Brightness Sun altitude
Rises 18:55:20 0° 269° (W) 2,363 ? -7.9°
Reaches altitude 10° 18:57:26 10° 272° (W) 1,500 ? -8.2°
Maximum altitude 19:00:48 67° 356° (N) 459 ? -8.7°
Enters shadow 19:03:52 12° 79° (E) 1,388 ? -9.2°
